Weather History for Cork, Ireland

Change the Weather History Date:

Friday, April 5, 2013

  Actual Average Record
Temperature  
Mean Temperature 38 °F -  
Max Temperature 46 °F 54 °F 71 °F (1999)
Min Temperature 31 °F 41 °F 30 °F (2006)
Degree Days  
Heating Degree Days 26    
Moisture  
Dew Point 28 °F    
Average Humidity 65    
Maximum Humidity 80    
Minimum Humidity 41    
Precipitation  
Precipitation 0.00 in 0.10 in - ()
Sea Level Pressure  
Sea Level Pressure 30.18 in    
Wind  
Wind Speed 10 mph ()    
Max Wind Speed 17 mph    
Max Gust Speed -    
Visibility 6.2 miles    
Events      
Averages and records for this station are not official NWS values.
T = Trace of Precipitation, MM = Missing Value Source: Averaged Metar Reports

Daily Weather History Graph

Daily Weather History Graph

Search for Another Location

Airport:

Trip Planner

Search our weather history database for the weather conditions in past years. The results will help you decide how hot, cold, wet, or windy it might be!

Date:

Astronomy

Apr. 05, 2013 Rise Set
Actual Time 6:59 AM IST 8:14 PM IST
Civil Twilight 6:25 AM IST 8:49 PM IST
Nautical Twilight 5:43 AM IST 9:31 PM IST
Astronomical Twilight 4:57 AM IST 10:17 PM IST
Moon 4:33 AM IST (4/5) 2:51 PM IST (4/5)
Length of Visible Light 14h 24m
Length of Day
13h 14m
Waning Crescent, 26% of the Moon is Illuminated
Apr 5
Waning Crescent
Apr 10
New
Apr 18
First Quarter
Apr 25
Full
May 2
Last Quarter

Hourly Weather History & Observations

Time (IST) Temp. Windchill Dew Point Humidity Pressure Visibility Wind Dir Wind Speed Gust Speed Precip Events Conditions
12:00 AM 35.6 °F 27.5 °F 26.6 °F 70% 30.15 in 6.2 mi North 11.5 mph - N/A   Partly Cloudy
12:30 AM 35.6 °F 28.6 °F 26.6 °F 70% 30.15 in 6.2 mi North 9.2 mph - N/A   Partly Cloudy
1:00 AM 34 °F - 26 °F 64% 30.20 in 31 mi North 11.2 mph - -   Scattered Clouds
1:00 AM 33.8 °F 25.8 °F 26.6 °F 75% 30.15 in 6.2 mi North 10.4 mph - N/A   Partly Cloudy
1:30 AM 33.8 °F 27.0 °F 26.6 °F 75% 30.15 in 6.2 mi North 8.1 mph - N/A   Partly Cloudy
2:00 AM 33.8 °F 27.0 °F 26.6 °F 75% 30.15 in 6.2 mi NNW 8.1 mph - N/A   Partly Cloudy
2:30 AM 33.8 °F 26.4 °F 26.6 °F 75% 30.15 in 6.2 mi North 9.2 mph - N/A   Partly Cloudy
3:00 AM 32.0 °F 25.6 °F 24.8 °F 75% 30.15 in 6.2 mi North 6.9 mph - N/A   Partly Cloudy
3:30 AM 32.0 °F 24.8 °F 24.8 °F 75% 30.15 in 6.2 mi North 8.1 mph - N/A   Partly Cloudy
4:00 AM 32.0 °F 23.0 °F 24.8 °F 75% 30.15 in 6.2 mi NNW 11.5 mph - N/A   Partly Cloudy
4:30 AM 33.8 °F 25.8 °F 26.6 °F 75% 30.15 in 6.2 mi NNW 10.4 mph - N/A   Partly Cloudy
5:00 AM 33.8 °F 25.3 °F 24.8 °F 70% 30.15 in 6.2 mi NNW 11.5 mph - N/A   Partly Cloudy
5:30 AM 32.0 °F 23.0 °F 24.8 °F 75% 30.15 in 6.2 mi NNW 11.5 mph - N/A   Partly Cloudy
6:00 AM 32.0 °F 23.6 °F 24.8 °F 75% 30.15 in 6.2 mi NNW 10.4 mph - N/A   Partly Cloudy
6:30 AM 32.0 °F 24.2 °F 26.6 °F 80% 30.15 in 6.2 mi North 9.2 mph - N/A   Partly Cloudy
7:00 AM 31 °F - 25 °F 72% 30.20 in 28 mi NW 11.2 mph - -   Scattered Clouds
7:00 AM 32.0 °F 23.6 °F 24.8 °F 75% 30.15 in 6.2 mi NW 10.4 mph - N/A   Partly Cloudy
7:30 AM 32.0 °F 22.5 °F 24.8 °F 75% 30.15 in 6.2 mi NNW 12.7 mph - N/A   Partly Cloudy
8:00 AM 32.0 °F 23.6 °F 26.6 °F 80% 30.18 in 6.2 mi NNW 10.4 mph - N/A   Partly Cloudy
8:30 AM 33.8 °F 25.3 °F 26.6 °F 75% 30.18 in 6.2 mi NNW 11.5 mph - N/A   Partly Cloudy
9:00 AM 35.6 °F 28.6 °F 26.6 °F 70% 30.18 in 6.2 mi NW 9.2 mph - N/A   Partly Cloudy
9:30 AM 37.4 °F 30.3 °F 28.4 °F 70% 30.18 in 6.2 mi North 10.4 mph - N/A   Partly Cloudy
10:00 AM 39.2 °F 30.8 °F 30.2 °F 70% 30.18 in 6.2 mi North 15.0 mph - N/A   Partly Cloudy
10:30 AM 41.0 °F 32.5 °F 30.2 °F 65% 30.18 in 6.2 mi North 17.3 mph - N/A   Partly Cloudy
11:00 AM 41.0 °F 32.5 °F 30.2 °F 65% 30.18 in 6.2 mi North 17.3 mph - N/A   Partly Cloudy
11:30 AM 42.8 °F 35.4 °F 32.0 °F 66% 30.18 in 6.2 mi NNE 15.0 mph - N/A   Scattered Clouds
12:00 PM 42.8 °F 36.2 °F 32.0 °F 66% 30.18 in 6.2 mi NE 12.7 mph - N/A   Scattered Clouds
12:30 PM 46.4 °F 39.8 °F 30.2 °F 53% 30.18 in 6.2 mi NE 16.1 mph - N/A   Mostly Cloudy
1:00 PM 44 °F - 31 °F 48% 30.22 in 37 mi NE 15.7 mph - -   Mostly Cloudy
1:00 PM 44.6 °F 37.8 °F 30.2 °F 57% 30.18 in 6.2 mi NE 15.0 mph - N/A   Mostly Cloudy
1:30 PM 46.4 °F 39.5 °F 30.2 °F 53% 30.18 in 6.2 mi NE 17.3 mph - N/A   Mostly Cloudy
2:00 PM 46.4 °F 40.4 °F 30.2 °F 53% 30.18 in 6.2 mi NE 13.8 mph - N/A   Mostly Cloudy
2:30 PM 44.6 °F 38.8 °F 30.2 °F 57% 30.18 in 6.2 mi NNE 11.5 mph - N/A   Mostly Cloudy
3:00 PM 44.6 °F 38.1 °F 30.2 °F 57% 30.18 in 6.2 mi NNE 13.8 mph - N/A   Mostly Cloudy
3:30 PM 44.6 °F 38.1 °F 30.2 °F 57% 30.18 in 6.2 mi North 13.8 mph - N/A   Mostly Cloudy
4:00 PM 44.6 °F 38.4 °F 30.2 °F 57% 30.18 in 6.2 mi North 12.7 mph - N/A   Mostly Cloudy
4:30 PM 44.6 °F 38.8 °F 28.4 °F 53% 30.18 in 6.2 mi North 11.5 mph - N/A   Mostly Cloudy
5:00 PM 46.4 °F 40.7 °F 30.2 °F 53% 30.18 in 6.2 mi NNE 12.7 mph - N/A   Mostly Cloudy
5:30 PM 44.6 °F 38.1 °F 30.2 °F 57% 30.18 in 6.2 mi NNE 13.8 mph - N/A   Mostly Cloudy
6:00 PM 46.4 °F 40.1 °F 28.4 °F 50% 30.18 in 6.2 mi NNE 15.0 mph - N/A   Mostly Cloudy
6:30 PM 44.6 °F 38.4 °F 28.4 °F 53% 30.18 in 6.2 mi NNE 12.7 mph - N/A   Scattered Clouds
7:00 PM 45 °F - 29 °F 41% 30.20 in 37 mi NNE 11.2 mph - -   Scattered Clouds
7:00 PM 44.6 °F 38.8 °F 28.4 °F 53% 30.18 in 6.2 mi NNE 11.5 mph - N/A   Partly Cloudy
7:30 PM 44.6 °F 39.2 °F 28.4 °F 53% 30.18 in 6.2 mi NNE 10.4 mph - N/A   Partly Cloudy
8:00 PM 44.6 °F 40.2 °F 28.4 °F 53% 30.21 in 6.2 mi NNE 8.1 mph - N/A   Partly Cloudy
8:30 PM 42.8 °F 39.3 °F 28.4 °F 57% 30.21 in 6.2 mi NE 5.8 mph - N/A   Partly Cloudy
9:00 PM 39.2 °F 35.9 °F 28.4 °F 65% 30.24 in 6.2 mi NE 4.6 mph - N/A   Partly Cloudy
9:30 PM 39.2 °F 37.0 °F 28.4 °F 65% 30.24 in 6.2 mi NNE 3.5 mph - N/A   Partly Cloudy
10:00 PM 39.2 °F 35.0 °F 28.4 °F 65% 30.24 in 6.2 mi NE 5.8 mph - N/A   Partly Cloudy
10:30 PM 37.4 °F 32.1 °F 28.4 °F 70% 30.24 in 6.2 mi East 6.9 mph - N/A   Partly Cloudy
11:00 PM 37.4 °F 32.1 °F 28.4 °F 70% 30.27 in 6.2 mi East 6.9 mph - N/A   Partly Cloudy
11:30 PM 37.4 °F 32.8 °F 26.6 °F 65% 30.24 in 6.2 mi East 5.8 mph - N/A   Partly Cloudy